Regional Weather Roundup
Issued by NWS San Angelo, TX

Home | Current Version | Previous Version | Text Only | Print | Product List | Glossary On
Versions: 1 2 3 4 5 6 7 8 9 10 11 12 13 14 15 16 17 18 19 20 21 22 23 24 25 26 27 28 29 30 31 32 33 34 35 36 37 38 39 40 41 42 43 44 45 46 47 48 49 50
000
ASUS44 KSJT 170410
RWRSJT
WEST CENTRAL TEXAS REGIONAL WEATHER ROUNDUP
NATIONAL WEATHER SERVICE SAN ANGELO TX
1100 PM CDT MON OCT 16 2017

NOTE: "FAIR" INDICATES FEW OR NO CLOUDS BELOW 12,000 FEET WITH NO
SIGNIFICANT WEATHER AND/OR OBSTRUCTIONS TO VISIBILITY.

TXZ049-054-064>066-071>073-076>078-098-099-113-114-127-128-139-140-
154-155-168>170-170500
...LOCATIONS ACROSS WEST CENTRAL TEXAS...

CITY           SKY/WX    TMP DP  RH WIND       PRES   REMARKS
SAN ANGELO     CLEAR     49  39  68 SW3       30.31S
ABILENE        CLEAR     47  40  76 S6        30.31S
DYESS AFB      CLEAR     45  41  87 S3        30.30F
JUNCTION       CLEAR     50  40  68 CALM      30.32R
SWEETWATER     CLEAR     56  32  40 S6        30.34S
BROWNWOOD      CLEAR     46  37  71 CALM      30.31S HAZE
COLEMAN        CLEAR     49  38  64 W6        30.32R
SONORA         CLEAR     45  36  70 CALM      30.37R
OZONA          FAIR      43  32  65 CALM      30.35S
BRADY          NOT AVBL
$$

TEXAS PANHANDLE/OKLAHOMA PANHANDLE

CITY           SKY/WX    TMP DP  RH WIND       PRES   REMARKS
AMARILLO       CLEAR     52  35  52 S14       30.28S
BORGER         CLEAR     59  34  39 S14G21    30.24S
CANADIAN       CLEAR     55  38  52 SW8       30.25R
DALHART        CLOUDY    45  37  73 S7        30.26R
DUMAS          CLEAR     44  37  76 S9        30.25S WCI  39
GUYMON         NOT AVBL
HEREFORD       CLEAR     47  40  75 SW6       30.29R
PAMPA          CLEAR     50  38  62 S12       30.27S
PERRYTON       CLEAR     54  37  53 S9        30.22S
$$

SOUTHERN PANHANDLE/SOUTH PLAINS/ROLLING PLAINS

CITY           SKY/WX    TMP DP  RH WIND       PRES   REMARKS
LUBBOCK        CLEAR     53  34  48 S12       30.30S
SNYDER         CLEAR     55  33  42 CALM      30.33R
CHILDRESS      CLEAR     51  36  56 S9        30.29R
SEMINOLE       CLEAR     50  37  59 S8        30.34S
$$

PERMIAN BASIN

CITY           SKY/WX    TMP DP  RH WIND       PRES   REMARKS
MIDLAND        CLEAR     54  39  57 SW3       30.34R
ODESSA         NOT AVBL
WINK           CLEAR     48  40  73 E7        30.32R
$$

FAR WEST/SOUTHWEST MOUNTAINS/TRANS PECOS

CITY           SKY/WX    TMP DP  RH WIND       PRES   REMARKS
ALPINE         CLEAR     49  35  57 SW8       30.43S
DRYDEN           N/A     55  41  59 W8        30.30S
EL PASO        CLEAR     66  40  38 E5        30.30S
FORT STOCKTON  CLEAR     54  39  57 S8        30.33S
GUADALUPE PASS CLEAR     63  32  31 SE3       30.41S
MARFA          CLEAR     48  39  71 N8        30.41S
PECOS          CLEAR     54  44  68 CALM      30.33R
$$

DALLAS/FORT WORTH METROPLEX

CITY           SKY/WX    TMP DP  RH WIND       PRES   REMARKS
DFW AIRPORT    CLEAR     61  41  47 CALM      30.28R
FTW MEACHAM    CLEAR     63  40  42 NE5       30.29R
DAL-EXECUTIVE  CLEAR     54  44  69 CALM      30.29R
GRAND PRAIRIE  CLEAR     59  40  50 CALM      30.31R
ADDISON        CLEAR     61  39  44 CALM      30.30S
MESQUITE       CLEAR     54  40  57 E5        30.29S
LANCASTER      CLEAR     51  44  78 CALM      30.30S
$$

NORTH CENTRAL TEXAS

CITY           SKY/WX    TMP DP  RH WIND       PRES   REMARKS
SHRMAN/DENISON CLEAR     52  41  65 CALM      30.30S
GAINESVILLE    CLEAR     51  42  71 CALM      30.31S
BRIDGEPORT     CLEAR     46  42  87 CALM      30.31F
DENTON         CLEAR     48  43  82 CALM      30.29S
WAXAHACHIE     CLEAR     52  42  69 CALM      30.30S
GRANBURY       CLEAR     48  41  75 CALM      30.31S
$$

WESTERN NORTH TEXAS

CITY           SKY/WX    TMP DP  RH WIND       PRES   REMARKS
WICHITA FALLS  CLEAR     56  40  55 CALM      30.29R
VERNON         CLEAR     54  37  52 S3        30.30S
BRECKENRIDGE   CLEAR     52  42  69 SE5       30.30S
COMANCHE       CLEAR     60  37  43 CALM      30.31S
$$

CENTRAL AND SOUTH CENTRAL TEXAS

CITY           SKY/WX    TMP DP  RH WIND       PRES   REMARKS
AUSTIN/BERGSTM CLEAR     49  46  90 CALM      30.29R
WACO           CLEAR     54  39  57 N3        30.30R
HILLSBORO      CLEAR     59  40  50 NE7       30.30R
TEMPLE         CLEAR     53  39  59 N6        30.30R
KILLEEN-GRAY   CLEAR     55  39  53 N7        30.29S
FORT HOOD      CLEAR     58  39  50 NE3       30.27R
GEORGETOWN     CLEAR     58  42  55 N7        30.31R
LAGO VISTA     FAIR      59  39  47 NE8       30.30S
SAN MARCOS     CLEAR     53  43  68 NW3       30.29S
NEW BRAUNFELS  CLEAR     51  44  77 N6        30.27R
RANDOLPH AFB   CLEAR     55  43  65 NW8       30.28S
SAN ANTONIO    CLEAR     57  43  59 NW5       30.29R
STINSON        CLEAR     56  48  74 CALM      30.27R
PLEASANTON     NOT AVBL
LA GRANGE      CLEAR     58  47  67 CALM      30.25S
GIDDINGS       CLEAR     58  44  59 N3        30.29R
$$

EAST TEXAS

CITY           SKY/WX    TMP DP  RH WIND       PRES   REMARKS
PARIS          CLEAR     51  44  77 N5        30.30S
CLARKSVILLE    NOT AVBL
TYLER          CLEAR     56  39  53 E5        30.28F
LONGVIEW       CLEAR     53  43  68 CALM      30.28S
PALESTINE      CLEAR     59  43  54 NE3       30.30S
NACOGDOCHES    CLEAR     54  42  64 N3        30.29R
$$

TEXAS HILL COUNTRY AND EDWARDS PLATEAU

CITY           SKY/WX    TMP DP  RH WIND       PRES   REMARKS
LLANO          CLEAR     48  39  71 CALM      30.34R
HORSESHOE BAY  FAIR      48  43  81 CALM      30.31R
KERRVILLE      CLEAR     49  43  80 CALM      30.32R
FREDERICKSBRG  CLEAR     47  38  71 CALM      30.32R
ROCKSPRINGS    NOT AVBL
HONDO          CLEAR     51  39  63 N7        30.29R
UVALDE         CLEAR     56  42  60 NE6       30.30R
DEL RIO        CLEAR     54  45  71 CALM      30.28R
$$

SOUTHEAST TEXAS

CITY           SKY/WX    TMP DP  RH WIND       PRES   REMARKS
COLLEGE STN    CLEAR     59  44  57 N7        30.27S
CALDWELL       CLEAR     56  44  64 N5        30.28S
CROCKETT         N/A     50  45  81 CALM      30.30S
BRENHAM        CLEAR     59  46  61 N3        30.27S
HUNTSVILLE     CLEAR     56  44  64 CALM      30.26S
CONROE         CLEAR     50  48  93 CALM      30.26R
HOUSTON BUSH   CLEAR     60  50  69 N5        30.25R
HOUSTON HOBBY  CLEAR     68  45  43 NE13      30.23S
PERLAND        CLEAR     67  45  45 NE8       30.24S
WHARTON        CLEAR     57  46  65 N5        30.25R
$$

THE UPPER TEXAS COAST

CITY           SKY/WX    TMP DP  RH WIND       PRES   REMARKS
ORANGE         CLEAR     59  49  68 NE6       30.25F
PORT ARTHUR    LGT RAIN  60  48  64 NE8       30.23S
GALVESTON      CLEAR     70  52  52 NE17G26   30.23R
ANGLETON       CLEAR     60  48  64 N6        30.23R
BAY CITY       CLEAR     58  49  72 CALM      30.23R
$$

TEXAS COASTAL BEND, RIO GRANDE PLAINS DEEP SOUTH TEXAS

CITY           SKY/WX    TMP DP  RH WIND       PRES   REMARKS
VICTORIA       CLEAR     55  49  80 N8        30.25R
BEEVILLE       FAIR      58  42  55 N6        30.26R
ROCKPORT       CLEAR     66  52  60 N8        30.24R
PORT ARANSAS   NOT AVBL
PORT LAVACA    CLEAR     58  47  67 NW6       30.24S
CORPUS CHRISTI CLEAR     61  49  64 N8        30.24R
KINGSVILLE NAS CLEAR     62  48  60 N7        30.25R
COTULLA        CLEAR     57  45  64 NW3       30.27S
LAREDO         CLEAR     64  45  49 NW6       30.28R
BROWNSVILLE    CLEAR     66  54  65 NW6       30.22S
PORT ISABEL    CLEAR     66  56  70 NW8       30.21S
HEBBRONVILLE   CLEAR     58  41  53 N6        30.28R
MCALLEN        CLEAR     71  46  40 N7        30.25R
WESLACO        CLEAR     66  46  48 N5        30.24R
FALFURRIAS     CLEAR     62  47  57 CALM      30.25R
EDINBURG       CLEAR     62  50  65 N6        30.25S
$$




USA.gov is the U.S. government's official web portal to all federal, state and local government web resources and services.